Terminal Aerodrome Forecast
Issued by NWS

Home | Current Version | Previous Version | Text Only | Print | Product List | Glossary Off
Versions: 1 2 3 4 5 6 7 8 9 10 11 12 13 14 15 16 17 18 19 20 21 22 23 24 25 26

000
FTUS43 KABR 180700 AAA
TAFMBG
TAF AMD
KMBG 180708Z 1807/1906 12008KT P6SM OVC007
     FM181700 17008KT P6SM BKN010 OVC070=

USA.gov is the U.S. government's official web portal to all federal, state and local government web resources and services.